Regional Weather Roundup
Issued by NWS Goodland, KS

Home | Current Version | Previous Version | Graphics & Text | Print | Product List | Glossary On
Versions: 1 2 3 4 5 6 7 8 9 10 11 12 13 14 15 16 17 18 19 20 21 22 23 24 25 26 27 28 29 30 31 32 33 34 35 36 37 38 39 40 41 42 43 44 45 46 47 48 49 50
000
ASUS43 KGLD 150408
RWRGLD

GOODLAND FORECAST AREA HOURLY WEATHER ROUNDUP
NATIONAL WEATHER SERVICE GOODLAND KS
1000 PM MDT SUN SEP 14 2014

...OFFICIAL OBSERVATIONS...

CITY           SKY/WX    TMP DP  RH WIND       PRES   REMARKS
GOODLAND KS    PTCLDY    62  56  80 E7        30.02S
HILL CITY KS   PTCLDY    64  58  80 E9        29.95F
IMPERIAL NEB   MOCLDY    61  57  87 NE10      30.01R
MCCOOK NEB     PTCLDY    62  57  83 NE10      29.99R
AKRON CO       MOCLDY    64  55  72 S10       30.06R
BURLINGTON CO  MOCLDY    72  49  44 NE7       30.05R
LIMON CO       MOCLDY    65  40  39 N12       30.13R
$$

...UNOFFICIAL OBSERVATIONS...

CITY           SKY/WX    TMP DP  RH WIND       PRES   REMARKS
COLBY KS       CLEAR     61  61 100 NE6       30.00F
NORTON KS      CLEAR     61  54  77 NE13      29.96F
SHARON SPRINGS   N/A     66  56  71 S10         N/A
TRIBUNE KS     CLEAR     70  63  78 S13       30.02R
WAKEENEY KS      N/A     70  60  69 MISG        N/A
TRENTON NEB      N/A     61  32  33 NE12        N/A
KIT CARSON CO    N/A     67  51  56 CALM        N/A
YUMA CO          N/A     64  56  75 CALM        N/A
$$



USA.gov is the U.S. government's official web portal to all federal, state and local government web resources and services.